Participated 1 time
in 1956
Pierre Scribante, France
Tour de France 2026 starts from Barcelona, Spain in

Stats and Facts from
Tour de France.

2026   2025   2024   2023  2022  2021  2020  2019   2018  2017   2016   2015  2014  2013   2012   2011  2010   2009   2008   2007   2006   2005   2004   2003   2002   2001   2000   1999   1998   1997  1996   1995   1994   1993   1992  1991   1990   1989   1988   1987   1986   1985   1984   1983  1982  1981   1980   1979  1978  1977   1976  1975  1974  1973   1972   1971   1970  1969   1968   1967   1966   1965  1964  1963   1962   1961   1960   1959   1958   1957  1956   1955   1954   1953   1952  1951  1950  1949   1948  1947  1939   1938   1937   1936   1935   1934   1933  1932   1931   1930  1929   1928   1927   1926  1925  1924  1923   1922   1921   1920   1919  1914   1913   1912   1911   1910  1909   1908   1907   1906  1905  1904   1903 

Tourstats
Sitemap

After stage 21 - 2025:
 16451 starters.
  5464 different riders.
  689 teams.
  2398 stages.
  470 restdays.
  466506.50 km.
  5925 abandoned riders.

Click map for 1952 route.
Facts from Tour de France 1952 Additional info and images from 1952.
  |   Stages.  |   Stage winners.  |   Days in jerseys.  |   Teams.  |   All riders.  |   All riders by age.  |   All riders from.  |  

  |   Rookies.  |   Withdrawls.  |   Average speed.  |   GC.  |   Polka  |   Green  |   White  |   Summits. (In tour)  |   Miscellaneous.  |  

Stage 12 on July 7th. 1952
Pick a stage:  1  2  3  4  5  6  7  8  9  10  11  12  13  14  15  16  17  18  19  20  21  22  23  

After stage 12:    Fausto Coppi  
  SestrièresMonaco | Dist: 251.00km. | Winner: Jan Nolten

Podium
2  Col de Tende Jean Robicafter151.00 km.

3  Col de Brouis - Sospel Jean-Baptiste Dottoafter190.00 km.

2  La Turbie Jan Noltenafter232.00 km.


Average speed for all riders in stage:  29,295 km./hr.

1
 Jan Nolten  Holland08h 13' 19"=30,528  km/h

2
 Jean-Baptiste Dotto  France08h 14' 46"+  00:01:27 =30,439  km/h

3
 Pierre Molineris  Sud Est08h 17' 03"+  00:03:44 =30,299  km/h

4  Jean Bertaina  Sud Est08h 18' 26"+  00:05:07 =30,215  km/h

5  Alois De Hertog  Belgium08h 20' 01"+  00:06:42 =30,119  km/h

6  Stan Ockers  Belgium08h 20' 07"+  00:06:48 =30,113  km/h

7  Jean Robic  France08h 20' 07"+  00:06:48 =30,113  km/h

8  Gino Bartali  Italy08h 20' 18"+  00:06:59 =30,102  km/h

9  Fausto Coppi  Italy08h 20' 18"+  00:06:59 =30,102  km/h

10  Antonio Gelabert  Spain08h 20' 18"+  00:06:59 =30,102  km/h

11  Bernardo Ruíz  Spain08h 20' 19"+  00:07:00 =30,101  km/h

12  Lucien Lazarides  France08h 20' 20"+  00:07:01 =30,100  km/h

13  José Serra Gil  Spain08h 20' 59"+  00:07:40 =30,061  km/h

14  Fiorenzo Magni  Italy08h 21' 04"+  00:07:45 =30,056  km/h

15  José Pérez  Spain08h 21' 04"+  00:07:45 =30,056  km/h

16  Wim van Est  Holland08h 21' 04"+  00:07:45 =30,056  km/h

17  Jacques Marinelli  Paris08h 21' 31"+  00:08:12 =30,029  km/h

18  Gottfried Weilenmann  Switzerland08h 22' 25"+  00:09:06 =29,975  km/h

19  Alexandre Close  Belgium08h 24' 23"+  00:11:04 =29,858  km/h

20  Raoul Remy  France08h 24' 24"+  00:11:05 =29,857  km/h

21  Jean Malléjac  Ouest-Sud Ouest08h 24' 58"+  00:11:39 =29,824  km/h

22  Rene Rotta  Sud Est08h 25' 55"+  00:12:36 =29,768  km/h

23  Eduard Van Ende  Belgium08h 26' 09"+  00:12:50 =29,754  km/h

24  Jean Goldschmit  Luxembourg08h 27' 23"+  00:14:04 =29,682  km/h

25  Walter Diggelmann  Switzerland08h 27' 39"+  00:14:20 =29,666  km/h

26  Hein Van Breenen  Holland08h 28' 40"+  00:15:21 =29,607  km/h

27  Lucien Teisseire  France08h 28' 49"+  00:15:30 =29,598  km/h

28  Maurice Quentin  France08h 28' 50"+  00:15:31 =29,597  km/h

29  Guy Lapébie  Ouest-Sud Ouest08h 28' 52"+  00:15:33 =29,595  km/h

30  Vincent Vitetta  Sud Est08h 30' 08"+  00:16:49 =29,522  km/h

31  Antonin Rolland  France08h 30' 08"+  00:16:49 =29,522  km/h

32  Gerrit Voorting  Holland08h 30' 08"+  00:16:49 =29,522  km/h

33  Andrès Trobat  Spain08h 30' 08"+  00:16:49 =29,522  km/h

34  Jean Le Guilly  Ouest-Sud Ouest08h 30' 08"+  00:16:49 =29,522  km/h

35  Andrea Carrea  Italy08h 30' 08"+  00:16:49 =29,522  km/h

36  José Gil Sole  Spain08h 30' 08"+  00:16:49 =29,522  km/h

37  Thijs Roks  Holland08h 30' 16"+  00:16:57 =29,514  km/h

38  Franco Franchi  Italy08h 31' 08"+  00:17:49 =29,464  km/h

39  Gilbert Bauvin  Nord Est-Centre08h 33' 29"+  00:20:10 =29,329  km/h

40  Roger Rossinelli  Nord Est-Centre08h 33' 30"+  00:20:11 =29,328  km/h

41  Raphaël Geminiani  France08h 34' 00"+  00:20:41 =29,300  km/h

42  Giuseppe Mirando  Sud Est08h 34' 00"+  00:20:41 =29,300  km/h

43  Georges Decaux  Paris08h 34' 01"+  00:20:42 =29,299  km/h

44  Jacques Vivier  Ouest-Sud Ouest08h 35' 47"+  00:22:28 =29,198  km/h

45  Settimo Sabbadini  Ouest-Sud Ouest08h 35' 48"+  00:22:29 =29,197  km/h

46  Marcel Fernandez  North Africa08h 35' 48"+  00:22:29 =29,197  km/h

47  Wout Wagtmans  Holland08h 36' 24"+  00:23:05 =29,163  km/h

48  Giulio Bresci  Italy08h 36' 24"+  00:23:05 =29,163  km/h

49  Luciano Pezzi  Italy08h 36' 24"+  00:23:05 =29,163  km/h

50  Mario Baroni  Italy08h 36' 31"+  00:23:12 =29,157  km/h

51  Francisco Masip  Spain08h 36' 32"+  00:23:13 =29,156  km/h

52  Fiorenzo Crippa  Italy08h 36' 35"+  00:23:16 =29,153  km/h

53  Hans Dekkers  Holland08h 36' 36"+  00:23:17 =29,152  km/h

54  Ettore Milano  Italy08h 36' 36"+  00:23:17 =29,152  km/h

55  Johny Goedert  Luxembourg08h 36' 36"+  00:23:17 =29,152  km/h

56  Ahmed Kebaïli  North Africa08h 36' 36"+  00:23:17 =29,152  km/h

57  André Rosseel  Belgium08h 36' 36"+  00:23:17 =29,152  km/h

58  Jean De Gribaldy  Nord Est-Centre08h 40' 06"+  00:26:47 =28,956  km/h

59  Adolphe Deledda  Nord Est-Centre08h 40' 07"+  00:26:48 =28,955  km/h

60  Pierre Pardoën  Nord Est-Centre08h 40' 12"+  00:26:53 =28,950  km/h

61  Robert Bintz  Luxembourg08h 41' 54"+  00:28:35 =28,856  km/h

62  Jacques Renaud  Paris08h 42' 08"+  00:28:49 =28,843  km/h

63  Jean Delahaye  Ouest-Sud Ouest08h 43' 02"+  00:29:43 =28,794  km/h

64  André Bernard  Ouest-Sud Ouest08h 43' 49"+  00:30:30 =28,751  km/h

65  Marcel Zelasco  North Africa08h 44' 27"+  00:31:08 =28,716  km/h

66  Nello Lauredi  France08h 50' 19"+  00:37:00 =28,398  km/h

67  Giovanni Corrieri  Italy08h 50' 19"+  00:37:00 =28,398  km/h

68  Alfredo Martini  Italy08h 50' 19"+  00:37:00 =28,398  km/h

69  Adolphe Pezzuli  Sud Est08h 50' 19"+  00:37:00 =28,398  km/h

70  Heinrich Spuhler  Switzerland08h 50' 19"+  00:37:00 =28,398  km/h

71  Roger Decock  Belgium08h 50' 19"+  00:37:00 =28,398  km/h

72  Maurice Neyt  Belgium08h 50' 19"+  00:37:00 =28,398  km/h

73  Raymond Scardin  Ouest-Sud Ouest08h 50' 19"+  00:37:00 =28,398  km/h

74  Siro Bianchi  Sud Est08h 50' 19"+  00:37:00 =28,398  km/h

75  Vincent Soler  North Africa08h 50' 19"+  00:37:00 =28,398  km/h

76  Carlo Lafranchi  Switzerland08h 50' 19"+  00:37:00 =28,398  km/h

77  Eugène Telotte  Paris08h 50' 19"+  00:37:00 =28,398  km/h

78  Robert Bonnaventure  France08h 50' 19"+  00:37:00 =28,398  km/h

79  Paul Giguet  Sud Est08h 50' 19"+  00:37:00 =28,398  km/h

80  Bernard Gauthier  France08h 50' 19"+  00:37:00 =28,398  km/h

81  Henri Paret  North Africa08h 52' 00"+  00:38:41 =28,308  km/h

82  Henk Faanhof  Holland08h 52' 00"+  00:38:41 =28,308  km/h


Todays birthdays.

1889 • Adolphe Landon
1890 • Jules Lebreton
1904 • Julien Grujon
1909 • Erich Metze
1926 • Giovanni Rossi
1928 • Serge Blusson
1928 • Alois Vansteenkiste
1931 • André Dupré
1934 • Alfred Rüegg
1962 • Francisco Espinosa
1962 • Paul Kimmage
1963 • Federico Muñoz
1966 • Andrea Tafi
1971 • Emmanuel Magnien
1973 • Paolo Savoldelli
1985 • Mikhail Ignatyev

 

Optimized for Chrome - Edge
and Opera browsers.